[[{"header":{"parameterUnit":"m.s-1","parameterCategory":2,"la1":30.2991,"la2":30.254,"lo1":-89.0895,"lo2":-89.0444,"dy":0.0017,"dx":0.0017,"nx":28,"ny":28,"refTime":"2024-05-07T09:00:00:Z","depth":"0","parameterNumber":2,"parameterNumberName":"U-component_of_CURRENTS"},"data":[0,0,0,0,0,0,0,0,0,0,0,0,0,0,0,0,0,0,0,0,0,0,0,0,0,0,0,0,0,0,0,0,0,0,0,0,0,0,0,0,0,0,0,0,0,0,0,0,0,0,0,0,0,0,0,0,0,0,0.2318,0.2319,0,0.2383,0.2383,0.2384,0.2402,0.2402,0.2402,0.2402,0.2408,0.2408,0.2409,0,0,0,0,0,0,0,0,0,0,0,0,0,0.2202,0.2204,0.2318,0.2319,0.2321,0.2383,0.2383,0.2384,0.2402,0.2402,0.2402,0.2402,0.2408,0.2408,0.2409,0,0,0,0,0,0,0,0,0,0,0,0,0,0.2254,0.2205,0.2318,0.2341,0.2343,0.2383,0.2383,0.2384,0.2402,0.2402,0.2402,0.2402,0.2408,0.2408,0.2409,0.2408,0,0,0.2409,0.2409,0,0,0,0,0,0,0,0,0.2251,0.2258,0.2336,0.2339,0.2343,0.2388,0.2345,0.2391,0.2402,0.2375,0.2402,0.2402,0.2399,0.24,0.2407,0.2409,0.2409,0.2409,0.2409,0.2409,0.2409,0,0,0,0,0,0,0,0.2248,0.2255,0.2339,0.2337,0.2341,0.2345,0.2352,0.2353,0.2382,0.2378,0.238,0.2394,0.24,0.2406,0.2407,0.2409,0.2409,0.2409,0.2409,0.2409,0.2408,0.2408,0,0,0,0,0,0,0.2249,0.2252,0.2337,0.2342,0.2301,0.2347,0.2355,0.237,0.2383,0.2387,0.2394,0.2395,0.2406,0.2407,0.2407,0.2419,0.2409,0.2409,0.241,0.2408,0.2408,0.2408,0,0,0,0,0,0,0.2246,0.2256,0.2335,0.2302,0.2312,0.235,0.2366,0.2371,0.2385,0.2397,0.2399,0.2404,0.2406,0.2407,0.241,0.2419,0.241,0.241,0.2408,0.2408,0.2408,0.2435,0,0,0,0,0,0,0.2243,0.2255,0.2263,0.2302,0.2315,0.2367,0.2367,0.2373,0.2396,0.2397,0.2406,0.2406,0.2406,0.241,0.241,0.2419,0.241,0.2408,0.2408,0.2408,0.2434,0.2436,0.2437,0,0,0,0,0,0.2238,0.2255,0.2263,0.2273,0.2326,0.2368,0.2374,0.2398,0.2396,0.2408,0.2406,0.2406,0.2408,0.241,0.241,0.2419,0.2409,0.2408,0.2408,0.2434,0.2435,0.2437,0,0,0,0,0,0,0.2208,0.226,0.2269,0.23,0.2334,0.2373,0.2388,0.24,0.2409,0.2405,0.2407,0.2408,0.2415,0.2408,0.241,0.2416,0.2407,0.2407,0.2427,0.2428,0.243,0.2435,0.241,0,0,0,0,0,0.2206,0.223,0.2278,0.23,0.232,0.2351,0.237,0.2386,0.2403,0.2408,0.2412,0.241,0.2413,0.2414,0.2415,0.2418,0.2442,0.2422,0.2423,0.2424,0.2428,0.2473,0.248,0.2407,0.2407,0.2407,0,0,0.2197,0.2231,0.2242,0.2295,0.232,0.2344,0.2362,0.2393,0.2404,0.2405,0.2412,0.2418,0.2415,0.2421,0.2423,0.2418,0.246,0.2424,0.2425,0.2428,0.2474,0.2481,0.2488,0.2407,0.2407,0.2407,0,0,0.2193,0.2226,0.2242,0.2273,0.232,0.2342,0.2352,0.2392,0.2403,0.2416,0.2417,0.2428,0.2428,0.2435,0.2435,0.2442,0.2468,0.2439,0.245,0.2495,0.2502,0.2509,0.2563,0.2574,0.2437,0.2437,0.2437,0,0.2178,0.2209,0.2252,0.2278,0.2303,0.234,0.2359,0.2377,0.2407,0.2422,0.2418,0.2438,0.2436,0.2453,0.2453,0.2448,0.2481,0.2448,0.25,0.2506,0.2513,0.2567,0.2579,0.2439,0.2438,0.2438,0.2438,0,0.2187,0.2211,0.2226,0.2267,0.2298,0.2324,0.2363,0.2384,0.2399,0.2421,0.2448,0.2453,0.2472,0.2468,0.2461,0.2499,0.2513,0.2502,0.2502,0.2522,0.2577,0.2589,0.244,0.244,0.244,0.2439,0,0,0.2153,0.2217,0.222,0.2237,0.2297,0.2321,0.235,0.2394,0.2418,0.244,0.2478,0.2479,0.25,0.2501,0.2504,0.253,0.2602,0.2533,0.2535,0.2598,0.2719,0.2754,0.277,0.2608,0.261,0.2611,0.2746,0,0.2143,0.2179,0.2218,0.2244,0.2269,0.2318,0.234,0.2383,0.2425,0.2469,0.2493,0.2524,0.2507,0.2526,0.2553,0.2595,0.2633,0.2568,0.2679,0.2683,0.2721,0.2785,0.2782,0.2904,0.2758,0.276,0.2761,0,0.2136,0.2166,0.2189,0.2241,0.2256,0.227,0.2335,0.2365,0.2439,0.248,0.2532,0.2562,0.2615,0.2592,0.2688,0.2652,0.2687,0.2711,0.2717,0.2748,0.274,0.2855,0.2931,0.2928,0.278,0.2778,0.2777,0,0.2092,0.2143,0.2158,0.2176,0.2238,0.2254,0.2288,0.2362,0.2411,0.2499,0.256,0.2618,0.2675,0.2719,0.2785,0.2745,0.2899,0.2851,0.2916,0.2919,0.2936,0.2938,0.3031,0.2917,0.2917,0.2917,0.2916,0,0.2069,0.2078,0.2133,0.214,0.2161,0.222,0.2261,0.2315,0.2415,0.2484,0.2562,0.2645,0.2711,0.2807,0.2831,0.294,0.2948,0.2943,0.2964,0.2946,0.2947,0.2959,0.2925,0.2922,0.292,0.292,0.2919,0,0.201,0.2046,0.2064,0.212,0.2138,0.2151,0.2248,0.2287,0.2397,0.2501,0.2538,0.2699,0.2836,0.2912,0.3016,0.3025,0.3052,0.3126,0.3111,0.3127,0.3151,0.3117,0.3022,0.294,0.3215,0.3217,0.3218,0,0.1982,0.1985,0.2034,0.2046,0.2065,0.2109,0.2141,0.2257,0.2324,0.2532,0.2582,0.2768,0.2899,0.3103,0.3171,0.3266,0.3142,0.3287,0.3192,0.3182,0.316,0.2945,0.2865,0.3233,0.3235,0.3236,0.3237,0,0.1933,0.1943,0.1957,0.1983,0.2008,0.2051,0.2119,0.2176,0.2323,0.244,0.2619,0.275,0.3007,0.3148,0.3302,0.3337,0.3179,0.3313,0.331,0.3198,0.2963,0.2885,0.3117,0.3248,0.3247,0.3246,0.3245,0.3245,0.1895,0.1887,0.1907,0.1926,0.195,0.1986,0.2009,0.2117,0.2229,0.2405,0.2569,0.2767,0.3076,0.3318,0.3329,0.342,0.3263,0.3381,0.3351,0.3139,0.3022,0.3287,0.3428,0.3428,0.3428,0.3428,0.3428,0,0.187,0.1861,0.1862,0.188,0.1879,0.1921,0.1988,0.2016,0.2124,0.2334,0.2501,0.2861,0.3093,0.3297,0.3538,0.3499,0.326,0.3435,0.3153,0.3077,0.337,0.3339,0.346,0.346,0.346,0.346,0.346,0.346,0.1861,0.1845,0.1842,0.1819,0.1824,0.1819,0.1845,0.1907,0.2033,0.2258,0.2482,0.2689,0.3137,0.3524,0.3637,0.3556,0.33,0.3184,0.309,0.3374,0.3365,0.3357,0.3322,0.3437,0.3437,0.2694,0.2689,0.2685]},{"header":{"parameterUnit":"m.s-1","parameterCategory":2,"la1":30.2991,"la2":30.254,"lo1":-89.0895,"lo2":-89.0444,"dy":0.0017,"dx":0.0017,"nx":28,"ny":28,"refTime":"2024-05-07T09:00:00:Z","depth":"0","parameterNumber":3,"parameterNumberName":"V-component_of_CURRENTS"},"data":[0,0,0,0,0,0,0,0,0,0,0,0,0,0,0,0,0,0,0,0,0,0,0,0,0,0,0,0,0,0,0,0,0,0,0,0,0,0,0,0,0,0,0,0,0,0,0,0,0,0,0,0,0,0,0,0,0,0,0.0104,0.0103,0,0.0044,0.0044,0.0043,-0.0008,-0.0009,-0.0009,-0.001,-0.0147,-0.015,-0.0154,0,0,0,0,0,0,0,0,0,0,0,0,0,0.0143,0.0142,0.0104,0.0103,0.0102,0.0045,0.0044,0.0043,-0.0008,-0.0009,-0.0009,-0.001,-0.0146,-0.015,-0.0154,0,0,0,0,0,0,0,0,0,0,0,0,0,0.0108,0.0142,0.0104,0.0071,0.0068,0.0045,0.0044,0.0042,-0.0008,-0.0009,-0.001,-0.001,-0.0145,-0.015,-0.0154,-0.0172,0,0,-0.0169,-0.0171,0,0,0,0,0,0,0,0,0.011,0.0106,0.0077,0.0073,0.007,0.0026,0.0007,-0.0033,-0.0008,0.0019,-0.001,-0.0011,-0.0095,-0.0104,-0.0115,-0.0178,-0.0184,-0.017,-0.0173,-0.0175,-0.0176,0,0,0,0,0,0,0,0.0112,0.0108,0.0078,0.0076,0.0072,0.005,0.0044,-0.0001,-0.0036,0.0016,0.0013,0.0009,-0.0098,-0.011,-0.0119,-0.0186,-0.017,-0.0174,-0.0177,-0.0179,-0.0272,-0.0272,0,0,0,0,0,0,0.0125,0.0111,0.008,0.0077,0.009,0.005,0.0043,0.0039,-0.0034,-0.0045,0.001,0.0007,-0.0101,-0.0113,-0.0124,-0.0151,-0.0175,-0.0179,-0.0182,-0.0272,-0.0272,-0.0271,0,0,0,0,0,0,0.0126,0.0123,0.0083,0.0094,0.0087,0.005,0.0046,0.0039,0.0025,-0.0038,-0.0051,0.0004,-0.0102,-0.0117,-0.0164,-0.0157,-0.0182,-0.0186,-0.0273,-0.0272,-0.0272,-0.0205,0,0,0,0,0,0,0.0128,0.0124,0.0127,0.0095,0.0087,0.0074,0.0046,0.0038,0.0025,0.002,-0.0048,-0.0061,-0.0104,-0.0156,-0.0168,-0.0164,-0.019,-0.0274,-0.0273,-0.0272,-0.0207,-0.0202,-0.0197,0,0,0,0,0,0.0129,0.014,0.0128,0.0124,0.0093,0.0075,0.0069,0.0039,0.0025,0.0023,-0.0025,-0.0059,-0.0159,-0.016,-0.0175,-0.0171,-0.0274,-0.0273,-0.0272,-0.021,-0.0203,-0.0197,0,0,0,0,0,0,0.016,0.0135,0.0121,0.0123,0.0103,0.0067,0.0066,0.0045,0.0007,0.0002,-0.0061,-0.0077,-0.0113,-0.015,-0.0149,-0.0194,-0.0219,-0.0221,-0.0167,-0.0161,-0.0156,-0.0133,-0.0194,0,0,0,0,0,0.017,0.0169,0.014,0.0142,0.0136,0.0102,0.0092,0.0072,0.0036,0.0019,-0.0028,-0.0077,-0.0118,-0.0146,-0.0187,-0.0218,-0.0247,-0.0222,-0.0217,-0.0212,-0.0203,-0.0246,-0.0243,-0.0268,-0.0268,-0.0268,0,0,0.0182,0.0169,0.0168,0.0149,0.0131,0.0128,0.0094,0.0085,0.0079,0.0009,-0.0016,-0.0062,-0.0121,-0.0152,-0.0171,-0.0186,-0.0218,-0.0211,-0.0206,-0.02,-0.0244,-0.0242,-0.024,-0.0267,-0.0267,-0.0268,0,0,0.0212,0.0197,0.0208,0.0194,0.0175,0.0153,0.0153,0.012,0.0102,0.0072,0.0024,-0.0019,-0.0081,-0.0123,-0.0152,-0.0144,-0.0186,-0.0152,-0.0113,-0.0155,-0.0153,-0.0152,-0.0173,-0.0175,-0.0152,-0.0152,-0.0152,0,0.023,0.0238,0.0209,0.0216,0.0212,0.0168,0.018,0.0155,0.011,0.0097,0.0074,-0.0012,-0.0067,-0.0106,-0.0102,-0.0132,-0.0153,-0.0133,-0.0147,-0.0147,-0.0147,-0.017,-0.0172,-0.0148,-0.0149,-0.0149,-0.0149,0,0.0266,0.0272,0.0279,0.0272,0.0262,0.0265,0.0231,0.0215,0.0187,0.0159,0.0119,0.0047,-0.0004,-0.0027,-0.0066,-0.0089,-0.0101,-0.0133,-0.0161,-0.014,-0.0165,-0.0169,-0.0144,-0.0145,-0.0146,-0.0147,0,0,0.0307,0.0306,0.0308,0.0318,0.0293,0.0292,0.0281,0.0261,0.0261,0.0206,0.0199,0.0119,0.0084,0.0049,-0.0006,-0.0044,-0.0066,-0.008,-0.0084,-0.0096,-0.0138,-0.0142,-0.0147,-0.0099,-0.01,-0.01,-0.0151,0,0.0346,0.0377,0.036,0.0386,0.04,0.036,0.0355,0.0328,0.0299,0.028,0.0205,0.0176,0.0112,0.0093,0.0043,-0.0038,-0.0074,-0.0048,-0.0161,-0.0164,-0.0166,-0.0151,-0.0121,-0.0164,-0.0155,-0.0155,-0.0156,0,0.0386,0.0403,0.0437,0.0448,0.045,0.0451,0.0442,0.0435,0.0391,0.0372,0.0325,0.027,0.0204,0.015,0.0024,0.0046,-0.0034,-0.0099,-0.0104,-0.0133,-0.0174,-0.0187,-0.0171,-0.0324,-0.0162,-0.0162,-0.0161,0,0.0432,0.0457,0.0488,0.0491,0.0491,0.0494,0.0489,0.0459,0.0474,0.0433,0.0444,0.0345,0.0312,0.0192,0.0056,0.004,-0.0073,-0.012,-0.0197,-0.0198,-0.0208,-0.0209,-0.035,-0.0203,-0.0203,-0.0203,-0.0202,0,0.0478,0.0503,0.0512,0.0529,0.0569,0.0545,0.0582,0.0561,0.0558,0.0597,0.0499,0.0513,0.0322,0.0234,0.0093,-0.0051,-0.005,-0.0181,-0.0212,-0.0182,-0.018,-0.0342,-0.0452,-0.0205,-0.0204,-0.0204,-0.0203,0,0.0518,0.0523,0.0566,0.0582,0.0592,0.0617,0.0656,0.0684,0.0672,0.0722,0.0719,0.0638,0.0527,0.0341,0.0151,0.0012,-0.0236,-0.019,-0.013,-0.0154,-0.0378,-0.0484,-0.0671,-0.0777,-0.029,-0.029,-0.029,0,0.054,0.0566,0.0612,0.0645,0.0654,0.0696,0.0729,0.0737,0.0789,0.0814,0.0852,0.076,0.0734,0.0454,0.0181,-0.0063,-0.0239,-0.0205,-0.0244,-0.0378,-0.0521,-0.0597,-0.0678,-0.0228,-0.0227,-0.0227,-0.0227,0,0.0587,0.06,0.0637,0.0709,0.0754,0.0824,0.0881,0.0946,0.0976,0.1036,0.1099,0.1081,0.0813,0.0589,0.0237,0.0044,-0.0331,-0.0209,-0.0374,-0.0501,-0.0569,-0.0688,-0.0197,-0.0226,-0.0226,-0.0226,-0.0226,-0.0226,0.0621,0.066,0.0712,0.0783,0.0845,0.0949,0.1039,0.1122,0.1238,0.1365,0.1313,0.136,0.1,0.0527,0.0214,-0.0295,-0.0341,-0.0432,-0.0552,-0.0616,-0.0718,-0.0211,-0.0263,-0.0264,-0.0264,-0.0264,-0.0264,0,0.0675,0.0721,0.0786,0.0887,0.0981,0.1002,0.1143,0.1258,0.1432,0.1554,0.1634,0.155,0.1064,0.0563,-0.0127,-0.0527,-0.0715,-0.0759,-0.0868,-0.0941,-0.0498,-0.0494,-0.0567,-0.0567,-0.0567,-0.0567,-0.0566,-0.0566,0.071,0.0786,0.0826,0.0993,0.1072,0.123,0.1333,0.1491,0.1627,0.1853,0.1959,0.2006,0.1709,0.0325,-0.058,-0.0841,-0.117,-0.1234,-0.1416,-0.1108,-0.1087,-0.1066,-0.1086,-0.1282,-0.1283,-0.179,-0.1795,-0.1799]}],[{"header":{"parameterUnit":"m.s-1","parameterCategory":2,"la1":30.2991,"la2":30.254,"lo1":-89.0895,"lo2":-89.0444,"dy":0.0017,"dx":0.0017,"nx":28,"ny":28,"refTime":"2024-05-07T09:00:00:Z","depth":"2","parameterNumber":2,"parameterNumberName":"U-component_of_CURRENTS"},"data":[0,0,0,0,0,0,0,0,0,0,0,0,0,0,0,0,0,0,0,0,0,0,0,0,0,0,0,0,0,0,0,0,0,0,0,0,0,0,0,0,0,0,0,0,0,0,0,0,0,0,0,0,0,0,0,0,0,0,0.2287,0.2288,0,0.2353,0.2354,0.2354,0.2376,0.2376,0.2376,0.2376,0.2385,0.2385,0.2386,0,0,0,0,0,0,0,0,0,0,0,0,0,0.2174,0.2176,0.2287,0.2288,0.229,0.2353,0.2354,0.2354,0.2376,0.2376,0.2376,0.2376,0.2385,0.2385,0.2386,0,0,0,0,0,0,0,0,0,0,0,0,0,0.2226,0.2176,0.2287,0.2311,0.2314,0.2353,0.2354,0.2354,0.2376,0.2376,0.2376,0.2376,0.2385,0.2385,0.2386,0.2384,0,0,0.2386,0.2386,0,0,0,0,0,0,0,0,0.2223,0.223,0.2306,0.2309,0.2313,0.236,0.2318,0.2363,0.2376,0.2348,0.2376,0.2376,0.2374,0.2375,0.2382,0.2385,0.2385,0.2386,0.2386,0.2387,0.2387,0,0,0,0,0,0,0,0.222,0.2227,0.2309,0.2308,0.2312,0.2317,0.2324,0.2326,0.2355,0.235,0.2353,0.2367,0.2375,0.2382,0.2383,0.2385,0.2386,0.2387,0.2387,0.2387,0.2385,0.2385,0,0,0,0,0,0,0.222,0.2224,0.2307,0.2312,0.2272,0.2319,0.2327,0.2341,0.2357,0.2361,0.2367,0.2368,0.2382,0.2382,0.2383,0.2396,0.2387,0.2387,0.2387,0.2386,0.2385,0.2385,0,0,0,0,0,0,0.2217,0.2227,0.2305,0.2272,0.2283,0.2322,0.2337,0.2343,0.2359,0.2371,0.2373,0.2379,0.2382,0.2383,0.2387,0.2396,0.2387,0.2387,0.2386,0.2386,0.2385,0.2414,0,0,0,0,0,0,0.2214,0.2225,0.2234,0.2272,0.2285,0.2337,0.2338,0.2344,0.2369,0.2371,0.2381,0.2382,0.2382,0.2386,0.2387,0.2396,0.2387,0.2386,0.2386,0.2385,0.2413,0.2414,0.2416,0,0,0,0,0,0.221,0.2226,0.2234,0.2244,0.2296,0.2338,0.2344,0.2369,0.2369,0.2382,0.2381,0.2382,0.2384,0.2387,0.2387,0.2397,0.2386,0.2386,0.2385,0.2412,0.2414,0.2416,0,0,0,0,0,0,0.2181,0.2231,0.224,0.227,0.2305,0.2343,0.2359,0.2373,0.2383,0.2379,0.2383,0.2384,0.2392,0.2385,0.2387,0.2393,0.2384,0.2384,0.2404,0.2406,0.2407,0.2413,0.2387,0,0,0,0,0,0.2179,0.2202,0.2249,0.2271,0.229,0.2323,0.2341,0.2358,0.2377,0.2382,0.2387,0.2386,0.2389,0.2391,0.2392,0.2395,0.2418,0.2399,0.2401,0.2402,0.2405,0.2449,0.2456,0.2384,0.2384,0.2384,0,0,0.2171,0.2204,0.2215,0.2266,0.2292,0.2315,0.2334,0.2366,0.2377,0.2379,0.2388,0.2394,0.2391,0.2398,0.24,0.2395,0.2436,0.2401,0.2403,0.2405,0.245,0.2457,0.2464,0.2384,0.2384,0.2384,0,0,0.2167,0.2199,0.2215,0.2246,0.2292,0.2314,0.2325,0.2364,0.2377,0.239,0.2392,0.2404,0.2405,0.2411,0.2412,0.2419,0.2444,0.2416,0.2428,0.2471,0.2478,0.2485,0.2537,0.2547,0.2414,0.2414,0.2414,0,0.2153,0.2184,0.2226,0.225,0.2275,0.2312,0.2332,0.235,0.2381,0.2396,0.2393,0.2414,0.2412,0.243,0.243,0.2425,0.2457,0.2426,0.2476,0.2482,0.2489,0.254,0.2552,0.2416,0.2416,0.2415,0.2415,0,0.2162,0.2185,0.2201,0.224,0.2271,0.2297,0.2335,0.2356,0.2373,0.2395,0.2423,0.2428,0.2448,0.2444,0.2438,0.2476,0.2488,0.2478,0.2478,0.2498,0.2551,0.2562,0.2418,0.2417,0.2417,0.2416,0,0,0.213,0.2192,0.2195,0.2212,0.227,0.2294,0.2323,0.2366,0.239,0.2413,0.2451,0.2454,0.2475,0.2477,0.248,0.2506,0.2577,0.2509,0.2511,0.2573,0.269,0.2717,0.2733,0.2583,0.2585,0.2586,0.2716,0,0.2121,0.2155,0.2193,0.2219,0.2242,0.2291,0.2313,0.2356,0.2397,0.2441,0.2466,0.2498,0.2483,0.2503,0.2529,0.257,0.2607,0.2544,0.2651,0.2654,0.2686,0.2746,0.2524,0.2622,0.2727,0.2729,0.273,0,0.2113,0.2142,0.2165,0.2216,0.2231,0.2245,0.231,0.2339,0.2413,0.2453,0.2506,0.2536,0.2589,0.2567,0.266,0.2626,0.266,0.2683,0.2689,0.2711,0.2703,0.2614,0.2639,0.275,0.2748,0.2747,0.2746,0,0.2071,0.2121,0.2136,0.2154,0.2214,0.223,0.2265,0.2337,0.2386,0.2473,0.2533,0.259,0.2647,0.269,0.2754,0.2716,0.2864,0.2819,0.2875,0.2877,0.2707,0.2692,0.2883,0.2882,0.2882,0.2882,0.2881,0,0.2048,0.2058,0.2112,0.2119,0.2141,0.2198,0.224,0.2292,0.2391,0.2458,0.2536,0.2617,0.2683,0.2776,0.2799,0.2901,0.2912,0.2901,0.292,0.2712,0.2696,0.281,0.28,0.2887,0.2886,0.2885,0.2884,0,0.1991,0.2027,0.2045,0.21,0.2118,0.2133,0.2228,0.2267,0.2374,0.2476,0.2513,0.2669,0.2801,0.2876,0.2975,0.2981,0.3051,0.3076,0.2841,0.2831,0.3018,0.3008,0.3148,0.3151,0.3152,0.3154,0.3155,0,0.1964,0.1968,0.2016,0.2028,0.2047,0.2092,0.2124,0.2238,0.2303,0.2505,0.2554,0.2733,0.2855,0.3049,0.3079,0.316,0.3152,0.2992,0.287,0.3045,0.3049,0.3036,0.3023,0.2652,0.2649,0.2647,0.2645,0,0.1916,0.1927,0.194,0.1967,0.1993,0.2035,0.2102,0.2157,0.2301,0.2413,0.2583,0.2706,0.2919,0.2937,0.3067,0.3059,0.2959,0.295,0.3199,0.2634,0.2591,0.2591,0.2591,0.2623,0.2625,0.2627,0.2628,0.2629,0.1878,0.1871,0.1891,0.1912,0.1935,0.197,0.1994,0.2093,0.2198,0.2344,0.2503,0.2622,0.2736,0.2843,0.2804,0.2769,0.296,0.2811,0.2811,0.2816,0.275,0.2714,0.2758,0.276,0.2763,0.2765,0.2767,0,0.1852,0.1846,0.1847,0.1867,0.1864,0.1908,0.1972,0.1989,0.2084,0.2234,0.2367,0.2285,0.2372,0.2461,0.2406,0.2462,0.2344,0.2341,0.2155,0.2184,0.2207,0.21,0.1941,0.1937,0.1934,0.1931,0,0,0.1844,0.1826,0.1822,0.1801,0.1811,0.1805,0.1829,0.1861,0.1945,0.1992,0.2045,0.2261,0.2423,0.2136,0.2143,0.2033,0.2062,0.1947,0.2627,0.2439,0.2456,0.2523,0.24,0,0,0,0,0]},{"header":{"parameterUnit":"m.s-1","parameterCategory":2,"la1":30.2991,"la2":30.254,"lo1":-89.0895,"lo2":-89.0444,"dy":0.0017,"dx":0.0017,"nx":28,"ny":28,"refTime":"2024-05-07T09:00:00:Z","depth":"2","parameterNumber":3,"parameterNumberName":"V-component_of_CURRENTS"},"data":[0,0,0,0,0,0,0,0,0,0,0,0,0,0,0,0,0,0,0,0,0,0,0,0,0,0,0,0,0,0,0,0,0,0,0,0,0,0,0,0,0,0,0,0,0,0,0,0,0,0,0,0,0,0,0,0,0,0,0.0035,0.0034,0,-0.0023,-0.0024,-0.0025,-0.0073,-0.0074,-0.0074,-0.0074,-0.0209,-0.0213,-0.0216,0,0,0,0,0,0,0,0,0,0,0,0,0,0.0074,0.0073,0.0035,0.0034,0.0034,-0.0023,-0.0024,-0.0025,-0.0073,-0.0074,-0.0074,-0.0075,-0.0208,-0.0212,-0.0216,0,0,0,0,0,0,0,0,0,0,0,0,0,0.0039,0.0073,0.0035,0.0004,0.0001,-0.0023,-0.0024,-0.0025,-0.0073,-0.0074,-0.0074,-0.0075,-0.0207,-0.0212,-0.0217,-0.0235,0,0,-0.0231,-0.0234,0,0,0,0,0,0,0,0,0.0041,0.0037,0.0009,0.0006,0.0002,-0.004,-0.006,-0.0099,-0.0073,-0.0047,-0.0074,-0.0075,-0.0158,-0.0167,-0.0178,-0.0241,-0.0247,-0.0232,-0.0235,-0.0237,-0.0238,0,0,0,0,0,0,0,0.0043,0.0039,0.001,0.0009,0.0004,-0.0017,-0.0023,-0.0067,-0.0101,-0.0049,-0.0052,-0.0056,-0.0161,-0.0173,-0.0182,-0.0249,-0.0232,-0.0236,-0.0239,-0.0241,-0.0335,-0.0335,0,0,0,0,0,0,0.0056,0.0042,0.0012,0.0009,0.0022,-0.0017,-0.0023,-0.0027,-0.0099,-0.011,-0.0055,-0.0058,-0.0165,-0.0176,-0.0187,-0.0214,-0.0237,-0.0241,-0.0244,-0.0336,-0.0335,-0.0335,0,0,0,0,0,0,0.0057,0.0054,0.0015,0.0025,0.0019,-0.0017,-0.0021,-0.0028,-0.004,-0.0103,-0.0115,-0.006,-0.0166,-0.018,-0.0226,-0.022,-0.0244,-0.0248,-0.0336,-0.0336,-0.0335,-0.0268,0,0,0,0,0,0,0.0058,0.0055,0.0058,0.0026,0.0019,0.0006,-0.002,-0.0029,-0.0041,-0.0045,-0.0111,-0.0124,-0.0167,-0.0218,-0.0231,-0.0227,-0.0252,-0.0337,-0.0336,-0.0335,-0.0271,-0.0265,-0.0261,0,0,0,0,0,0.006,0.0071,0.0059,0.0056,0.0024,0.0007,0.0001,-0.0028,-0.004,-0.0042,-0.0089,-0.0122,-0.0222,-0.0222,-0.0237,-0.0234,-0.0337,-0.0336,-0.0335,-0.0273,-0.0266,-0.0261,0,0,0,0,0,0,0.0091,0.0066,0.0052,0.0055,0.0035,-0.0001,-0.0001,-0.0022,-0.0058,-0.0063,-0.0125,-0.0141,-0.0176,-0.0214,-0.0212,-0.0258,-0.0282,-0.0284,-0.023,-0.0224,-0.0219,-0.0197,-0.0256,0,0,0,0,0,0.0101,0.01,0.0071,0.0074,0.0067,0.0034,0.0025,0.0005,-0.003,-0.0046,-0.0093,-0.0141,-0.0183,-0.021,-0.0251,-0.0282,-0.0311,-0.0287,-0.0281,-0.0277,-0.0268,-0.0311,-0.0309,-0.0332,-0.0332,-0.0332,0,0,0.0113,0.01,0.0099,0.008,0.0063,0.006,0.0027,0.0019,0.0012,-0.0056,-0.008,-0.0126,-0.0186,-0.0217,-0.0236,-0.025,-0.0283,-0.0276,-0.0271,-0.0265,-0.031,-0.0308,-0.0306,-0.0331,-0.0331,-0.0331,0,0,0.0144,0.0128,0.0139,0.0126,0.0107,0.0085,0.0085,0.0052,0.0035,0.0006,-0.0042,-0.0084,-0.0147,-0.0189,-0.0218,-0.021,-0.0253,-0.0219,-0.0181,-0.0222,-0.0221,-0.022,-0.0242,-0.0244,-0.0219,-0.0218,-0.0218,0,0.0162,0.0168,0.014,0.0146,0.0142,0.01,0.0111,0.0087,0.0042,0.0029,0.0008,-0.0079,-0.0133,-0.0173,-0.017,-0.0199,-0.022,-0.02,-0.0215,-0.0215,-0.0215,-0.0239,-0.0241,-0.0215,-0.0215,-0.0216,-0.0216,0,0.0196,0.0202,0.0209,0.02,0.0191,0.0194,0.016,0.0144,0.0117,0.0089,0.0049,-0.0022,-0.0073,-0.0095,-0.0134,-0.0158,-0.017,-0.0201,-0.0228,-0.0208,-0.0235,-0.0238,-0.021,-0.0212,-0.0213,-0.0213,0,0,0.0237,0.0235,0.0237,0.0246,0.0221,0.0219,0.0208,0.0187,0.0187,0.0133,0.0126,0.0047,0.0012,-0.0022,-0.0076,-0.0114,-0.0137,-0.0149,-0.0153,-0.0166,-0.0209,-0.0213,-0.0219,-0.0168,-0.0169,-0.0169,-0.0223,0,0.0275,0.0304,0.0287,0.0311,0.0324,0.0285,0.0279,0.0252,0.0223,0.0204,0.013,0.0102,0.0039,0.0021,-0.0028,-0.0109,-0.0145,-0.0118,-0.0231,-0.0234,-0.0237,-0.0223,-0.0215,-0.0262,-0.0227,-0.0228,-0.0228,0,0.0313,0.0329,0.0362,0.0371,0.0373,0.0374,0.0364,0.0356,0.0312,0.0293,0.0247,0.0193,0.0127,0.0076,-0.005,-0.0027,-0.0107,-0.0171,-0.0176,-0.0205,-0.0246,-0.028,-0.0271,-0.0235,-0.0235,-0.0234,-0.0234,0,0.0359,0.0381,0.0412,0.0414,0.0413,0.0416,0.0411,0.038,0.0393,0.0353,0.0364,0.0266,0.0233,0.0115,-0.0019,-0.0034,-0.0149,-0.0194,-0.0272,-0.0273,-0.0301,-0.0304,-0.0278,-0.0278,-0.0277,-0.0277,-0.0277,0,0.0403,0.0427,0.0436,0.0452,0.049,0.0466,0.0502,0.0481,0.0477,0.0513,0.0418,0.0429,0.0243,0.0154,0.0016,-0.0128,-0.0127,-0.0257,-0.0288,-0.0276,-0.0276,-0.0286,-0.0286,-0.0279,-0.0279,-0.0278,-0.0278,0,0.0442,0.0447,0.0489,0.0504,0.0513,0.0538,0.0575,0.0602,0.059,0.0636,0.0633,0.055,0.0438,0.0256,0.0068,-0.0068,-0.0217,-0.0269,-0.0231,-0.0257,-0.0324,-0.032,-0.0368,-0.0369,-0.037,-0.037,-0.037,0,0.0463,0.0489,0.0534,0.0567,0.0575,0.0617,0.0649,0.0655,0.0703,0.0724,0.0758,0.0665,0.0631,0.0353,0.0081,-0.016,-0.0194,-0.0309,-0.0348,-0.0307,-0.0333,-0.0329,-0.0324,-0.0358,-0.0359,-0.0359,-0.0359,0,0.0507,0.0522,0.0557,0.0629,0.0674,0.0741,0.0795,0.0857,0.0883,0.0935,0.0987,0.0962,0.0692,0.0436,0.0089,-0.008,-0.0275,-0.032,-0.0295,-0.033,-0.0301,-0.0325,-0.0321,-0.0361,-0.036,-0.036,-0.036,-0.036,0.0539,0.0578,0.0629,0.07,0.0761,0.086,0.0944,0.1011,0.1115,0.1191,0.1156,0.1119,0.0806,0.0362,0.0057,-0.0277,-0.0266,-0.0387,-0.0386,-0.0384,-0.0367,-0.034,-0.0403,-0.0403,-0.0403,-0.0403,-0.0403,0,0.0583,0.0635,0.0699,0.0797,0.0882,0.0912,0.1043,0.1117,0.126,0.1305,0.1344,0.1059,0.0767,0.0419,-0.0082,-0.0369,-0.0399,-0.0451,-0.0436,-0.0433,-0.043,-0.0415,-0.0464,-0.0464,-0.0465,-0.0466,0,0,0.0614,0.0684,0.0723,0.0881,0.0967,0.1107,0.1202,0.1283,0.1343,0.1393,0.1371,0.129,0.0873,0.0504,0.01,-0.0182,-0.0233,-0.0233,-0.0156,-0.0086,-0.008,-0.0368,-0.0338,0,0,0,0,0]}],[{"header":{"parameterUnit":"m.s-1","parameterCategory":2,"la1":30.2991,"la2":30.254,"lo1":-89.0895,"lo2":-89.0444,"dy":0.0017,"dx":0.0017,"nx":28,"ny":28,"refTime":"2024-05-07T09:00:00:Z","depth":"4","parameterNumber":2,"parameterNumberName":"U-component_of_CURRENTS"},"data":[0,0,0,0,0,0,0,0,0,0,0,0,0,0,0,0,0,0,0,0,0,0,0,0,0,0,0,0,0,0,0,0,0,0,0,0,0,0,0,0,0,0,0,0,0,0,0,0,0,0,0,0,0,0,0,0,0,0,0.1348,0.1349,0,0.1387,0.1387,0.1388,0.145,0.1451,0.1452,0.1453,0.1536,0.1538,0.1539,0,0,0,0,0,0,0,0,0,0,0,0,0,0.1294,0.1295,0.1348,0.1349,0.1349,0.1386,0.1387,0.1388,0.145,0.1451,0.1452,0.1454,0.1536,0.1537,0.1539,0,0,0,0,0,0,0,0,0,0,0,0,0,0.1325,0.1296,0.1348,0.1384,0.1387,0.1386,0.1387,0.1388,0.145,0.1451,0.1453,0.1454,0.1535,0.1537,0.1539,0.1519,0,0,0.1545,0.1545,0,0,0,0,0,0,0,0,0.1323,0.1327,0.1378,0.1382,0.1385,0.1414,0.1398,0.1433,0.1449,0.1427,0.1453,0.1455,0.1498,0.1503,0.1507,0.1523,0.1526,0.1545,0.1546,0.1547,0.1547,0,0,0,0,0,0,0,0.1321,0.1325,0.1365,0.1379,0.1383,0.1386,0.1392,0.1405,0.1455,0.1429,0.1434,0.1436,0.15,0.1505,0.151,0.1527,0.1545,0.1546,0.1548,0.1548,0.1673,0.1675,0,0,0,0,0,0,0.1314,0.1323,0.1363,0.1366,0.1356,0.1386,0.1393,0.1404,0.1454,0.1462,0.1434,0.1438,0.1501,0.1508,0.1513,0.1611,0.1547,0.1548,0.155,0.167,0.1673,0.1675,0,0,0,0,0,0,0.1313,0.1318,0.1362,0.1344,0.135,0.1385,0.1397,0.1404,0.1443,0.1457,0.1467,0.147,0.1503,0.151,0.1566,0.161,0.1549,0.1551,0.1668,0.1671,0.1674,0.173,0,0,0,0,0,0,0.1311,0.1317,0.1337,0.1344,0.1351,0.139,0.1396,0.1404,0.1439,0.1446,0.149,0.1497,0.1505,0.1563,0.1568,0.1612,0.1552,0.1665,0.1669,0.1673,0.1726,0.1735,0.1743,0,0,0,0,0,0.131,0.1324,0.1338,0.1343,0.1372,0.1391,0.1396,0.1425,0.144,0.1465,0.1501,0.1498,0.1593,0.1566,0.1571,0.1616,0.1663,0.1668,0.1673,0.1722,0.1733,0.1743,0,0,0,0,0,0,0.1311,0.1332,0.1347,0.1369,0.1392,0.1402,0.1424,0.144,0.1484,0.1503,0.1516,0.1527,0.1595,0.1597,0.1566,0.1667,0.1631,0.1637,0.1666,0.1677,0.1686,0.1673,0.1554,0,0,0,0,0,0.1318,0.1341,0.1357,0.1381,0.1392,0.1413,0.1429,0.1452,0.1481,0.1504,0.1537,0.1575,0.1611,0.1638,0.1668,0.1713,0.1717,0.175,0.1758,0.1766,0.1761,0.1804,0.1816,0.1692,0.1692,0.1692,0,0,0.1324,0.134,0.1354,0.1384,0.1403,0.1429,0.1429,0.1465,0.1502,0.1504,0.1578,0.1607,0.1631,0.1692,0.1723,0.1704,0.1809,0.1772,0.1778,0.1768,0.1811,0.1823,0.1833,0.1695,0.1694,0.1694,0,0,0.1337,0.1364,0.1386,0.1409,0.1446,0.146,0.1477,0.1513,0.1549,0.1608,0.1628,0.1681,0.1737,0.1764,0.1781,0.1852,0.1854,0.1876,0.1909,0.1953,0.1963,0.1971,0.2009,0.2021,0.188,0.1881,0.1881,0,0.1346,0.1374,0.1396,0.1422,0.1447,0.1478,0.1509,0.1543,0.16,0.1632,0.1648,0.1745,0.1768,0.1828,0.1862,0.1871,0.1895,0.1864,0.1962,0.1971,0.1979,0.2015,0.2027,0.1884,0.1883,0.1883,0.1883,0,0.1366,0.1402,0.1417,0.1465,0.1497,0.1531,0.1574,0.1624,0.167,0.1704,0.179,0.1826,0.1882,0.1906,0.1905,0.198,0.1981,0.1967,0.1929,0.1994,0.2029,0.2041,0.1889,0.1887,0.1886,0.1886,0,0,0.1347,0.1418,0.1427,0.1459,0.1526,0.1549,0.1619,0.1678,0.1727,0.1798,0.1862,0.1931,0.1957,0.1977,0.1996,0.203,0.2114,0.2029,0.2029,0.2055,0.2219,0.21,0.21,0.2124,0.2126,0.2127,0.2226,0,0.1358,0.1412,0.1451,0.1514,0.1544,0.1602,0.1659,0.1726,0.1789,0.1863,0.1913,0.1986,0.1983,0.2025,0.2062,0.2105,0.2145,0.2088,0.2161,0.2163,0.2039,0.2109,0.2134,0.2235,0.2237,0.2239,0.224,0,0.1359,0.1398,0.1458,0.1539,0.1559,0.1608,0.1704,0.1761,0.1861,0.1918,0.1994,0.2039,0.2119,0.2101,0.2203,0.2174,0.2203,0.2222,0.2227,0.2096,0.2063,0.2154,0.2261,0.2259,0.2258,0.2256,0.2255,0,0.1319,0.1401,0.1451,0.148,0.1575,0.1623,0.1681,0.1781,0.1845,0.1959,0.2025,0.2111,0.2183,0.2228,0.2287,0.226,0.2385,0.235,0.2267,0.226,0.2311,0.23,0.2412,0.2412,0.2412,0.2412,0.2412,0,0.1298,0.134,0.1441,0.1466,0.1534,0.1611,0.1696,0.1767,0.1883,0.1956,0.2054,0.2127,0.2222,0.2302,0.2323,0.2339,0.2424,0.228,0.2278,0.2335,0.2326,0.232,0.2308,0.2416,0.2415,0.2414,0.2413,0,0.1241,0.1307,0.1367,0.1476,0.1515,0.1565,0.1701,0.1756,0.1882,0.1982,0.2029,0.2178,0.2279,0.2355,0.2445,0.2385,0.2407,0.239,0.2468,0.2467,0.2242,0.2232,0.2293,0.229,0.2287,0.2285,0.2283,0,0.1211,0.1238,0.136,0.1399,0.1452,0.1543,0.1601,0.1739,0.1802,0.1994,0.2031,0.2187,0.2265,0.2303,0.2388,0.2426,0.2396,0.2386,0.228,0.2239,0.2231,0.2226,0.222,0.2278,0.2277,0.2277,0.2276,0,0.1151,0.1208,0.1257,0.1341,0.141,0.1481,0.1579,0.1616,0.1768,0.1903,0.1986,0.2047,0.2162,0.2227,0.2285,0.2301,0.2373,0.2355,0.2359,0.226,0.2221,0.2215,0.2213,0.2266,0.2267,0.2268,0.2269,0,0.1103,0.1125,0.1202,0.1266,0.1349,0.1391,0.1456,0.1534,0.1616,0.1811,0.1839,0.2001,0.2137,0.2167,0.222,0.2231,0.2184,0.2089,0.2107,0.2119,0.2016,0.1938,0.1901,0,0,0,0,0,0.1041,0.1061,0.112,0.1182,0.1262,0.1316,0.1428,0.1496,0.1638,0.1647,0.1737,0.1829,0.1913,0.201,0.1987,0.2152,0.2196,0.2116,0.2096,0.2211,0.2222,0.2116,0,0,0,0,0,0,0.0994,0.1046,0.1085,0.1104,0.1132,0.1209,0.1275,0.1373,0.1391,0.1539,0.1603,0.1716,0.1837,0.1909,0.1952,0.1979,0.1928,0.222,0.2215,0.2204,0.2215,0.2224,0.2119,0,0,0,0,0]},{"header":{"parameterUnit":"m.s-1","parameterCategory":2,"la1":30.2991,"la2":30.254,"lo1":-89.0895,"lo2":-89.0444,"dy":0.0017,"dx":0.0017,"nx":28,"ny":28,"refTime":"2024-05-07T09:00:00:Z","depth":"4","parameterNumber":3,"parameterNumberName":"V-component_of_CURRENTS"},"data":[0,0,0,0,0,0,0,0,0,0,0,0,0,0,0,0,0,0,0,0,0,0,0,0,0,0,0,0,0,0,0,0,0,0,0,0,0,0,0,0,0,0,0,0,0,0,0,0,0,0,0,0,0,0,0,0,0,0,-0.0035,-0.0035,0,-0.0063,-0.0064,-0.0064,-0.0096,-0.0096,-0.0097,-0.0097,-0.0195,-0.0197,-0.0199,0,0,0,0,0,0,0,0,0,0,0,0,0,-0.0028,-0.0028,-0.0035,-0.0035,-0.0035,-0.0063,-0.0064,-0.0064,-0.0096,-0.0096,-0.0097,-0.0097,-0.0194,-0.0197,-0.02,0,0,0,0,0,0,0,0,0,0,0,0,0,-0.0042,-0.0028,-0.0035,-0.0054,-0.0055,-0.0063,-0.0064,-0.0065,-0.0096,-0.0096,-0.0097,-0.0097,-0.0193,-0.0197,-0.02,-0.0211,0,0,-0.021,-0.0212,0,0,0,0,0,0,0,0,-0.0041,-0.0043,-0.005,-0.0052,-0.0054,-0.0076,-0.0097,-0.0116,-0.0096,-0.0082,-0.0097,-0.0097,-0.016,-0.0166,-0.0171,-0.0215,-0.0219,-0.0211,-0.0213,-0.0214,-0.0215,0,0,0,0,0,0,0,-0.004,-0.0042,-0.0047,-0.0051,-0.0053,-0.0067,-0.007,-0.0101,-0.012,-0.0083,-0.0085,-0.0086,-0.0162,-0.0168,-0.0174,-0.0221,-0.0211,-0.0214,-0.0216,-0.0217,-0.0304,-0.0304,0,0,0,0,0,0,-0.0033,-0.004,-0.0046,-0.0048,-0.0048,-0.0067,-0.007,-0.0069,-0.0118,-0.0125,-0.0086,-0.0087,-0.0162,-0.017,-0.0178,-0.0205,-0.0214,-0.0218,-0.0219,-0.0303,-0.0304,-0.0304,0,0,0,0,0,0,-0.0032,-0.0033,-0.0045,-0.0044,-0.0047,-0.0066,-0.0065,-0.0069,-0.0079,-0.0119,-0.0128,-0.0091,-0.0163,-0.0173,-0.0209,-0.0209,-0.0219,-0.0222,-0.0303,-0.0303,-0.0304,-0.0252,0,0,0,0,0,0,-0.0032,-0.0032,-0.0029,-0.0044,-0.0046,-0.0049,-0.0065,-0.007,-0.0078,-0.0081,-0.0127,-0.0136,-0.0164,-0.0204,-0.0213,-0.0213,-0.0225,-0.0303,-0.0303,-0.0304,-0.0253,-0.025,-0.0248,0,0,0,0,0,-0.0032,-0.0022,-0.0028,-0.0029,-0.0041,-0.0049,-0.0052,-0.0068,-0.0077,-0.0079,-0.0113,-0.0135,-0.0213,-0.0207,-0.0217,-0.0219,-0.0302,-0.0303,-0.0304,-0.0254,-0.0251,-0.0248,0,0,0,0,0,0,-0.0014,-0.0024,-0.0032,-0.0025,-0.0036,-0.0054,-0.0053,-0.0066,-0.0092,-0.0096,-0.0138,-0.015,-0.0181,-0.0209,-0.0201,-0.0246,-0.0261,-0.0264,-0.022,-0.0218,-0.0215,-0.0197,-0.0228,0,0,0,0,0,-0.0009,-0.0005,-0.0019,-0.0014,-0.0017,-0.0036,-0.0041,-0.0052,-0.0075,-0.0086,-0.0119,-0.0157,-0.019,-0.021,-0.0243,-0.0268,-0.029,-0.0277,-0.0274,-0.0271,-0.0265,-0.03,-0.0299,-0.0306,-0.0306,-0.0306,0,0,0.0001,-0.0004,-0.0002,-0.001,-0.0019,-0.002,-0.004,-0.0044,-0.0048,-0.0094,-0.0113,-0.0149,-0.0195,-0.0222,-0.0238,-0.0245,-0.0281,-0.0272,-0.0269,-0.0264,-0.03,-0.0299,-0.0299,-0.0306,-0.0306,-0.0306,0,0,0.0021,0.0016,0.0024,0.0017,0.0007,-0.0005,-0.0006,-0.0025,-0.0037,-0.0058,-0.0094,-0.0129,-0.0177,-0.0209,-0.0231,-0.0236,-0.0265,-0.0247,-0.022,-0.0253,-0.0253,-0.0252,-0.0273,-0.0275,-0.0246,-0.0246,-0.0245,0,0.0032,0.0041,0.0025,0.003,0.0029,0.0003,0.0011,-0.0004,-0.0034,-0.0043,-0.0059,-0.0128,-0.017,-0.0203,-0.0205,-0.0229,-0.0247,-0.0225,-0.0248,-0.0249,-0.0249,-0.0271,-0.0274,-0.0243,-0.0243,-0.0244,-0.0244,0,0.0054,0.0062,0.0067,0.0064,0.0059,0.0063,0.0042,0.0031,0.0012,-0.0005,-0.0039,-0.0093,-0.0133,-0.0154,-0.0181,-0.0207,-0.0217,-0.0239,-0.0251,-0.0245,-0.0269,-0.0273,-0.024,-0.024,-0.0241,-0.0242,0,0,0.0075,0.0083,0.0084,0.0093,0.0079,0.0081,0.0073,0.006,0.0062,0.0021,0.0016,-0.0049,-0.0074,-0.0102,-0.0144,-0.0175,-0.0199,-0.0203,-0.0206,-0.0213,-0.0261,-0.0259,-0.0263,-0.0222,-0.0222,-0.0223,-0.0273,0,0.0097,0.012,0.0114,0.0134,0.0144,0.0123,0.0121,0.0104,0.0086,0.0073,0.0016,-0.0005,-0.0055,-0.0068,-0.011,-0.0176,-0.0208,-0.0182,-0.0275,-0.0277,-0.0268,-0.0267,-0.0225,-0.0276,-0.0277,-0.0278,-0.0278,0,0.0115,0.013,0.0157,0.0174,0.0177,0.0182,0.0182,0.0179,0.0151,0.0139,0.0105,0.0064,0.001,-0.0029,-0.0136,-0.0115,-0.0181,-0.0234,-0.0237,-0.0255,-0.0282,-0.0288,-0.0286,-0.0285,-0.0285,-0.0284,-0.0284,0,0.0134,0.0159,0.0185,0.019,0.0201,0.0209,0.0212,0.0196,0.0211,0.0186,0.0195,0.0118,0.0091,-0.0006,-0.0118,-0.0125,-0.0229,-0.0257,-0.0317,-0.0317,-0.0327,-0.0327,-0.0329,-0.0329,-0.0329,-0.0329,-0.0328,0,0.0153,0.0173,0.0199,0.0213,0.0249,0.0242,0.0276,0.0267,0.0273,0.0299,0.0235,0.0237,0.0096,0.0019,-0.0093,-0.0211,-0.0214,-0.0307,-0.0331,-0.0303,-0.03,-0.0329,-0.0328,-0.0331,-0.033,-0.033,-0.0329,0,0.0162,0.0179,0.0215,0.0245,0.0259,0.0283,0.033,0.0354,0.0355,0.0389,0.0388,0.0326,0.0226,0.0085,-0.007,-0.0166,-0.0288,-0.033,-0.0274,-0.0295,-0.0359,-0.0355,-0.0399,-0.04,-0.04,-0.04,-0.04,0,0.0165,0.0186,0.0244,0.0276,0.0293,0.0336,0.0368,0.039,0.0427,0.0445,0.0464,0.0389,0.0327,0.0126,-0.0039,-0.0247,-0.0284,-0.0347,-0.0371,-0.0348,-0.0367,-0.0362,-0.0358,-0.0401,-0.0401,-0.0401,-0.0401,0,0.017,0.0195,0.0229,0.0302,0.0348,0.0411,0.0462,0.0499,0.0529,0.0538,0.054,0.0435,0.0324,0.0145,-0.0015,-0.017,-0.0309,-0.0351,-0.0352,-0.0375,-0.0351,-0.0368,-0.0363,-0.0402,-0.0402,-0.0402,-0.0402,0,0.0166,0.0196,0.0249,0.0312,0.0387,0.0458,0.049,0.0539,0.0576,0.0598,0.0596,0.0477,0.0406,0.0186,0.0038,-0.0114,-0.0164,-0.0224,-0.0232,-0.0233,-0.018,-0.0125,-0.0122,0,0,0,0,0,0.0144,0.0179,0.0253,0.0324,0.0411,0.0449,0.054,0.057,0.0607,0.0621,0.0614,0.0515,0.0307,0.0218,0.0069,0.0003,-0.0211,-0.0181,-0.0288,-0.0408,-0.0406,-0.0374,0,0,0,0,0,0,0.0122,0.0182,0.0238,0.0331,0.038,0.0469,0.0527,0.0558,0.0575,0.0594,0.0494,0.0455,0.0255,0.0383,0.0054,0.0009,-0.0083,-0.0275,-0.0278,-0.0408,-0.0407,-0.0406,-0.0373,0,0,0,0,0]}]]